Ely, NV

10:21 AM PST on December 07, 2016 (GMT -0800)
Ely

Weather History for KELY - November, 2010

Change the Weather History Date:

Thursday, November 18, 2010

  Actual Average Record
Temperature  
Mean Temperature 45 °F 32 °F  
Max Temperature 55 °F 47 °F 69 °F (1949)
Min Temperature 34 °F 18 °F -12 °F (1964)
Degree Days  
Heating Degree Days 20 32  
Month to date heating degree days 460 518  
Since 1 July heating degree days 1220 1446  
Cooling Degree Days 0 0  
Month to date cooling degree days 0 0  
Year to date cooling degree days 271 218  
Moisture  
Dew Point 19 °F    
Average Humidity 37    
Maximum Humidity 48    
Minimum Humidity 26    
Precipitation  
Precipitation 0.00 in 0.03 in 0.53 in (1973)
Month to date precipitation 0.69 0.47  
Year to date precipitation 6.83 8.94  
Snow  
Snow 0.00 in 0.20 in 4.00 in (1902)
Month to date snowfall 5.9 3.4  
Since 1 July snowfall 5.9 6.8  
Since 1 September snowfall 5.9 6.8  
Snow Depth 0.00 in    
Sea Level Pressure  
Sea Level Pressure 30.00 in    
Wind  
Wind Speed 14 mph (SSW)    
Max Wind Speed 25 mph    
Max Gust Speed 30 mph    
Visibility 10 miles    
Events      
T = Trace of Precipitation, MM = Missing Value Source: NWS Daily Summary

Daily Weather History Graph

Daily Weather History Graph

Search for Another Location

Airport or City:

Trip Planner

Search our weather history database for the weather conditions in past years. The results will help you decide how hot, cold, wet, or windy it might be!

Date:

Astronomy

Nov. 18, 2010 Rise Set
Actual Time 6:26 AM PST 4:22 PM PST
Civil Twilight 5:57 AM PST 4:51 PM PST
Nautical Twilight 5:24 AM PST 5:23 PM PST
Astronomical Twilight 4:53 AM PST 5:55 PM PST
Moon 2:23 PM PST (11/18) 3:28 AM PST (11/18)
Length of Visible Light 10h 53m
Length of Day
9h 56m
Waxing Gibbous, 92% of the Moon is Illuminated
Nov 18
Waxing Gibbous
Nov 21
Full
Nov 28
Last Quarter
Dec 5
New
Dec 13
First Quarter

Hourly Weather History & Observations

Time (PST) Temp. Windchill Dew Point Humidity Pressure Visibility Wind Dir Wind Speed Gust Speed Precip Events Conditions
12:53 AM 37.0 °F 28.1 °F 18.0 °F 46% 30.11 in 10.0 mi SSW 15.0 mph - N/A   Clear
1:53 AM 37.0 °F 28.9 °F 18.0 °F 46% 30.09 in 10.0 mi SSW 12.7 mph - N/A   Clear
2:53 AM 36.0 °F 28.0 °F 18.0 °F 48% 30.08 in 10.0 mi SSW 11.5 mph - N/A   Clear
3:53 AM 35.1 °F 32.2 °F 17.1 °F 48% 30.08 in 10.0 mi Variable 3.5 mph - N/A   Clear
4:53 AM 39.0 °F 29.6 °F 15.1 °F 38% 30.09 in 10.0 mi SSW 18.4 mph 25.3 mph N/A   Clear
5:53 AM 39.0 °F 30.6 °F 15.1 °F 38% 30.11 in 10.0 mi SSW 15.0 mph 24.2 mph N/A   Clear
6:53 AM 39.0 °F 31.0 °F 15.1 °F 38% 30.10 in 10.0 mi SSW 13.8 mph 24.2 mph N/A   Clear
7:53 AM 42.1 °F 33.3 °F 15.1 °F 34% 30.09 in 10.0 mi SSW 19.6 mph 27.6 mph N/A   Clear
8:53 AM 48.9 °F - 19.0 °F 31% 30.06 in 10.0 mi South 17.3 mph 25.3 mph N/A   Clear
9:53 AM 51.1 °F - 19.0 °F 28% 30.04 in 10.0 mi South 20.7 mph 28.8 mph N/A   Clear
10:53 AM 51.1 °F - 18.0 °F 27% 30.04 in 10.0 mi South 15.0 mph 23.0 mph N/A   Clear
11:53 AM 53.1 °F - 19.0 °F 26% 29.98 in 10.0 mi SSE 15.0 mph 24.2 mph N/A   Clear
12:53 PM 55.0 °F - 19.0 °F 24% 29.94 in 10.0 mi South 16.1 mph - N/A   Clear
1:53 PM 54.0 °F - 19.0 °F 25% 29.92 in 10.0 mi SSE 17.3 mph 26.5 mph N/A   Clear
2:53 PM 48.9 °F - 21.0 °F 33% 29.94 in 10.0 mi South 8.1 mph - N/A   Clear
3:53 PM 46.0 °F 41.0 °F 21.0 °F 37% 29.96 in 10.0 mi SSW 10.4 mph - N/A   Clear
4:53 PM 44.1 °F 37.4 °F 19.9 °F 38% 29.95 in 10.0 mi South 13.8 mph - N/A   Clear
5:53 PM 39.9 °F 31.8 °F 21.0 °F 47% 29.95 in 10.0 mi SSW 15.0 mph - N/A   Clear
6:53 PM 42.1 °F 33.9 °F 19.9 °F 41% 29.94 in 10.0 mi SSW 17.3 mph - N/A   Clear
7:53 PM 41.0 °F 33.1 °F 19.9 °F 43% 29.93 in 10.0 mi SSW 15.0 mph - N/A   Clear
8:53 PM 39.9 °F 32.5 °F 19.9 °F 45% 29.91 in 10.0 mi SSW 12.7 mph - N/A   Clear
9:53 PM 39.9 °F 32.5 °F 19.9 °F 45% 29.89 in 10.0 mi SSW 12.7 mph - N/A   Clear
10:53 PM 39.9 °F 33.4 °F 19.9 °F 45% 29.88 in 10.0 mi SSW 10.4 mph - N/A   Clear
11:53 PM 39.9 °F 33.9 °F 21.0 °F 47% 29.86 in 10.0 mi SSW 9.2 mph - N/A   Clear